CPX787 Details

Departure: Chek Lap Kok International (VHHH)
Arrival: Kingsford Smith International Airport (YSSY) at N/A
Route: OCEAN V5 SABNO A583 IBOBI A583 ZAM A461 BUTPA A461 DN J251 TN T74 ENPAG H319 TARAL Y59 RIVET
Notes:


Current Weather Information
VHHH 231230Z 09011KT 9999 FEW030 26/19 Q1013 NOSIG
YSSY 231230Z 00000KT CAVOK 19/16 Q1018 NOSIG